Year,Month,Day,Hour,Minute,Value (Times are PST for temperature in C)
2009,07,31,00,00,24.20
2009,07,31,00,01,24.20
2009,07,31,00,02,24.20
2009,07,31,00,03,24.10
2009,07,31,00,04,24.10
2009,07,31,00,05,24.10
2009,07,31,00,06,24.10
2009,07,31,00,07,24.10
2009,07,31,00,08,24.00
2009,07,31,00,09,24.00
2009,07,31,00,10,24.00
2009,07,31,00,11,23.90
2009,07,31,00,12,23.90
2009,07,31,00,13,23.90
2009,07,31,00,14,23.90
2009,07,31,00,15,23.80
2009,07,31,00,16,23.80
2009,07,31,00,17,23.80
2009,07,31,00,18,23.80
2009,07,31,00,19,23.80
2009,07,31,00,20,23.80
2009,07,31,00,21,23.80
2009,07,31,00,22,23.70
2009,07,31,00,23,23.70
2009,07,31,00,24,23.70
2009,07,31,00,25,23.70
2009,07,31,00,26,23.70
2009,07,31,00,27,23.70
2009,07,31,00,28,23.70
2009,07,31,00,29,23.70
2009,07,31,00,30,23.70
2009,07,31,00,31,23.60
2009,07,31,00,32,23.60
2009,07,31,00,33,23.60
2009,07,31,00,34,23.60
2009,07,31,00,35,23.50
2009,07,31,00,36,23.50
2009,07,31,00,37,23.50
2009,07,31,00,38,23.40
2009,07,31,00,39,23.40
2009,07,31,00,40,23.40
2009,07,31,00,41,23.40
2009,07,31,00,42,23.40
2009,07,31,00,43,23.40
2009,07,31,00,44,23.40
2009,07,31,00,45,23.40
2009,07,31,00,46,23.40
2009,07,31,00,47,23.40
2009,07,31,00,48,23.40
2009,07,31,00,49,23.50
2009,07,31,00,50,23.50
2009,07,31,00,51,23.60
2009,07,31,00,52,23.60
2009,07,31,00,53,23.60
2009,07,31,00,54,23.60
2009,07,31,00,55,23.60
2009,07,31,00,56,23.50
2009,07,31,00,57,23.50
2009,07,31,00,58,23.40
2009,07,31,00,59,23.40
2009,07,31,01,00,23.40
2009,07,31,01,01,23.30
2009,07,31,01,02,23.30
2009,07,31,01,03,23.20
2009,07,31,01,04,23.20
2009,07,31,01,05,23.20
2009,07,31,01,06,23.20
2009,07,31,01,07,23.10
2009,07,31,01,08,23.10
2009,07,31,01,09,23.10
2009,07,31,01,10,23.10
2009,07,31,01,11,23.00
2009,07,31,01,12,23.00
2009,07,31,01,13,22.90
2009,07,31,01,14,22.90
2009,07,31,01,15,22.90
2009,07,31,01,16,22.80
2009,07,31,01,17,22.80
2009,07,31,01,18,22.80
2009,07,31,01,19,22.80
2009,07,31,01,20,22.70
2009,07,31,01,21,22.70
2009,07,31,01,22,22.60
2009,07,31,01,23,22.60
2009,07,31,01,24,22.50
2009,07,31,01,25,22.50
2009,07,31,01,26,22.40
2009,07,31,01,27,22.40
2009,07,31,01,28,22.40
2009,07,31,01,29,22.30
2009,07,31,01,30,22.30
2009,07,31,01,31,22.20
2009,07,31,01,32,22.20
2009,07,31,01,33,22.10
2009,07,31,01,34,22.10
2009,07,31,01,35,22.00
2009,07,31,01,36,21.90
2009,07,31,01,37,21.90
2009,07,31,01,38,21.80
2009,07,31,01,39,21.80
2009,07,31,01,40,21.70
2009,07,31,01,41,21.60
2009,07,31,01,42,21.50
2009,07,31,01,43,21.40
2009,07,31,01,44,21.30
2009,07,31,01,45,21.20
2009,07,31,01,46,21.10
2009,07,31,01,47,21.00
2009,07,31,01,48,20.90
2009,07,31,01,49,20.70
2009,07,31,01,50,20.50
2009,07,31,01,51,20.40
2009,07,31,01,52,20.20
2009,07,31,01,53,20.00
2009,07,31,01,54,19.90
2009,07,31,01,55,19.70
2009,07,31,01,56,19.60
2009,07,31,01,57,19.50
2009,07,31,01,58,19.40
2009,07,31,01,59,19.40
2009,07,31,02,00,19.30
2009,07,31,02,01,19.30
2009,07,31,02,02,19.20
2009,07,31,02,03,19.10
2009,07,31,02,04,19.10
2009,07,31,02,05,19.10
2009,07,31,02,06,19.00
2009,07,31,02,07,19.00
2009,07,31,02,08,18.90
2009,07,31,02,09,18.90
2009,07,31,02,10,18.90
2009,07,31,02,11,18.90
2009,07,31,02,12,18.80
2009,07,31,02,13,18.80
2009,07,31,02,14,18.80
2009,07,31,02,15,18.80
2009,07,31,02,16,18.80
2009,07,31,02,17,18.80
2009,07,31,02,18,18.80
2009,07,31,02,19,18.80
2009,07,31,02,20,18.80
2009,07,31,02,21,18.80
2009,07,31,02,22,18.80
2009,07,31,02,23,18.80
2009,07,31,02,24,18.80
2009,07,31,02,25,18.80
2009,07,31,02,26,18.80
2009,07,31,02,27,18.80
2009,07,31,02,28,18.80
2009,07,31,02,29,18.80
2009,07,31,02,30,18.80
2009,07,31,02,31,18.80
2009,07,31,02,32,18.80
2009,07,31,02,33,18.80
2009,07,31,02,34,18.80
2009,07,31,02,35,18.80
2009,07,31,02,36,18.80
2009,07,31,02,37,18.80
2009,07,31,02,38,18.80
2009,07,31,02,39,18.90
2009,07,31,02,40,19.00
2009,07,31,02,41,19.10
2009,07,31,02,42,19.30
2009,07,31,02,43,19.50
2009,07,31,02,44,19.60
2009,07,31,02,45,19.60
2009,07,31,02,46,19.70
2009,07,31,02,47,19.70
2009,07,31,02,48,19.70
2009,07,31,02,49,19.80
2009,07,31,02,50,19.90
2009,07,31,02,51,20.00
2009,07,31,02,52,20.00
2009,07,31,02,53,20.10
2009,07,31,02,54,20.20
2009,07,31,02,55,20.20
2009,07,31,02,56,20.30
2009,07,31,02,57,20.30
2009,07,31,02,58,20.40
2009,07,31,02,59,20.40
2009,07,31,03,00,20.40
2009,07,31,03,01,20.50
2009,07,31,03,02,20.50
2009,07,31,03,03,20.50
2009,07,31,03,04,20.50
2009,07,31,03,05,20.50
2009,07,31,03,06,20.50
2009,07,31,03,07,20.50
2009,07,31,03,08,20.50
2009,07,31,03,09,20.50
2009,07,31,03,10,20.50
2009,07,31,03,11,20.60
2009,07,31,03,12,20.60
2009,07,31,03,13,20.50
2009,07,31,03,14,20.50
2009,07,31,03,15,20.50
2009,07,31,03,16,20.50
2009,07,31,03,17,20.50
2009,07,31,03,18,20.50
2009,07,31,03,19,20.50
2009,07,31,03,20,20.50
2009,07,31,03,21,20.50
2009,07,31,03,22,20.50
2009,07,31,03,23,20.50
2009,07,31,03,24,20.40
2009,07,31,03,25,20.40
2009,07,31,03,26,20.40
2009,07,31,03,27,20.40
2009,07,31,03,28,20.40
2009,07,31,03,29,20.40
2009,07,31,03,30,20.40
2009,07,31,03,31,20.40
2009,07,31,03,32,20.30
2009,07,31,03,33,20.30
2009,07,31,03,34,20.30
2009,07,31,03,35,20.30
2009,07,31,03,36,20.30
2009,07,31,03,37,20.30
2009,07,31,03,38,20.30
2009,07,31,03,39,20.30
2009,07,31,03,40,20.30
2009,07,31,03,41,20.20
2009,07,31,03,42,20.20
2009,07,31,03,43,20.20
2009,07,31,03,44,20.20
2009,07,31,03,45,20.20
2009,07,31,03,46,20.20
2009,07,31,03,47,20.20
2009,07,31,03,48,20.20
2009,07,31,03,49,20.10
2009,07,31,03,50,20.10
2009,07,31,03,51,20.10
2009,07,31,03,52,20.00
2009,07,31,03,53,20.00
2009,07,31,03,54,20.00
2009,07,31,03,55,20.00
2009,07,31,03,56,19.90
2009,07,31,03,57,19.90
2009,07,31,03,58,19.90
2009,07,31,03,59,19.90
2009,07,31,04,00,19.90
2009,07,31,04,01,19.90
2009,07,31,04,02,19.90
2009,07,31,04,03,19.90
2009,07,31,04,04,19.90
2009,07,31,04,05,19.90
2009,07,31,04,06,19.90
2009,07,31,04,07,19.80
2009,07,31,04,08,19.80
2009,07,31,04,09,19.80
2009,07,31,04,10,19.80
2009,07,31,04,11,19.80
2009,07,31,04,12,19.80
2009,07,31,04,13,19.80
2009,07,31,04,14,19.80
2009,07,31,04,15,19.70
2009,07,31,04,16,19.70
2009,07,31,04,17,19.70
2009,07,31,04,18,19.70
2009,07,31,04,19,19.70
2009,07,31,04,20,19.60
2009,07,31,04,21,19.60
2009,07,31,04,22,19.60
2009,07,31,04,23,19.60
2009,07,31,04,24,19.60
2009,07,31,04,25,19.60
2009,07,31,04,26,19.50
2009,07,31,04,27,19.50
2009,07,31,04,28,19.50
2009,07,31,04,29,19.50
2009,07,31,04,30,19.40
2009,07,31,04,31,19.40
2009,07,31,04,32,19.40
2009,07,31,04,33,19.40
2009,07,31,04,34,19.30
2009,07,31,04,35,19.30
2009,07,31,04,36,19.30
2009,07,31,04,37,19.30
2009,07,31,04,38,19.30
2009,07,31,04,39,19.20
2009,07,31,04,40,19.20
2009,07,31,04,41,19.20
2009,07,31,04,42,19.10
2009,07,31,04,43,19.00
2009,07,31,04,44,18.90
2009,07,31,04,45,18.90
2009,07,31,04,46,18.70
2009,07,31,04,47,18.60
2009,07,31,04,48,18.50
2009,07,31,04,49,18.40
2009,07,31,04,50,18.30
2009,07,31,04,51,18.10
2009,07,31,04,52,18.00
2009,07,31,04,53,18.00
2009,07,31,04,54,17.90
2009,07,31,04,55,17.80
2009,07,31,04,56,17.70
2009,07,31,04,57,17.60
2009,07,31,04,58,17.50
2009,07,31,04,59,17.40
2009,07,31,05,00,17.30
2009,07,31,05,01,17.30
2009,07,31,05,02,17.20
2009,07,31,05,03,17.10
2009,07,31,05,04,17.10
2009,07,31,05,05,17.00
2009,07,31,05,06,17.00
2009,07,31,05,07,16.90
2009,07,31,05,08,16.90
2009,07,31,05,09,16.80
2009,07,31,05,10,16.80
2009,07,31,05,11,16.80
2009,07,31,05,12,16.70
2009,07,31,05,13,16.70
2009,07,31,05,14,16.60
2009,07,31,05,15,16.60
2009,07,31,05,16,16.50
2009,07,31,05,17,16.50
2009,07,31,05,18,16.50
2009,07,31,05,19,16.40
2009,07,31,05,20,16.40
2009,07,31,05,21,16.40
2009,07,31,05,22,16.30
2009,07,31,05,23,16.30
2009,07,31,05,24,16.30
2009,07,31,05,25,16.20
2009,07,31,05,26,16.20
2009,07,31,05,27,16.20
2009,07,31,05,28,16.20
2009,07,31,05,29,16.10
2009,07,31,05,30,16.10
2009,07,31,05,31,16.10
2009,07,31,05,32,16.10
2009,07,31,05,33,16.00
2009,07,31,05,34,16.00
2009,07,31,05,35,16.00
2009,07,31,05,36,15.90
2009,07,31,05,37,15.90
2009,07,31,05,38,15.90
2009,07,31,05,39,15.80
2009,07,31,05,40,15.80
2009,07,31,05,41,15.80
2009,07,31,05,42,15.80
2009,07,31,05,43,15.70
2009,07,31,05,44,15.70
2009,07,31,05,45,15.70
2009,07,31,05,46,15.70
2009,07,31,05,47,15.70
2009,07,31,05,48,15.60
2009,07,31,05,49,15.60
2009,07,31,05,50,15.60
2009,07,31,05,51,15.60
2009,07,31,05,52,15.60
2009,07,31,05,53,15.50
2009,07,31,05,54,15.50
2009,07,31,05,55,15.50
2009,07,31,05,56,15.50
2009,07,31,05,57,15.40
2009,07,31,05,58,15.40
2009,07,31,05,59,15.40
2009,07,31,06,00,15.40
2009,07,31,06,01,15.40
2009,07,31,06,02,15.40
2009,07,31,06,03,15.40
2009,07,31,06,04,15.40
2009,07,31,06,05,15.40
2009,07,31,06,06,15.30
2009,07,31,06,07,15.30
2009,07,31,06,08,15.30
2009,07,31,06,09,15.30
2009,07,31,06,10,15.30
2009,07,31,06,11,15.30
2009,07,31,06,12,15.30
2009,07,31,06,13,15.30
2009,07,31,06,14,15.30
2009,07,31,06,15,15.30
2009,07,31,06,16,15.30
2009,07,31,06,17,15.30
2009,07,31,06,18,15.30
2009,07,31,06,19,15.30
2009,07,31,06,20,15.30
2009,07,31,06,21,15.30
2009,07,31,06,22,15.30
2009,07,31,06,23,15.30
2009,07,31,06,24,15.30
2009,07,31,06,25,15.30
2009,07,31,06,26,15.30
2009,07,31,06,27,15.30
2009,07,31,06,28,15.30
2009,07,31,06,29,15.30
2009,07,31,06,30,15.30
2009,07,31,06,31,15.40
2009,07,31,06,32,15.40
2009,07,31,06,33,15.40
2009,07,31,06,34,15.40
2009,07,31,06,35,15.40
2009,07,31,06,36,15.40
2009,07,31,06,37,15.50
2009,07,31,06,38,15.50
2009,07,31,06,39,15.50
2009,07,31,06,40,15.60
2009,07,31,06,41,15.60
2009,07,31,06,42,15.60
2009,07,31,06,43,15.60
2009,07,31,06,44,15.60
2009,07,31,06,45,15.60
2009,07,31,06,46,15.70
2009,07,31,06,47,15.70
2009,07,31,06,48,15.70
2009,07,31,06,49,15.80
2009,07,31,06,50,15.80
2009,07,31,06,51,15.80
2009,07,31,06,52,15.90
2009,07,31,06,53,15.90
2009,07,31,06,54,15.90
2009,07,31,06,55,16.00
2009,07,31,06,56,16.00
2009,07,31,06,57,16.10
2009,07,31,06,58,16.10
2009,07,31,06,59,16.10
2009,07,31,07,00,16.20
2009,07,31,07,01,16.20
2009,07,31,07,02,16.20
2009,07,31,07,03,16.20
2009,07,31,07,04,16.30
2009,07,31,07,05,16.30
2009,07,31,07,06,16.30
2009,07,31,07,07,16.40
2009,07,31,07,08,16.40
2009,07,31,07,09,16.40
2009,07,31,07,10,16.50
2009,07,31,07,11,16.50
2009,07,31,07,12,16.60
2009,07,31,07,13,16.60
2009,07,31,07,14,16.70
2009,07,31,07,15,16.70
2009,07,31,07,16,16.70
2009,07,31,07,17,16.80
2009,07,31,07,18,16.80
2009,07,31,07,19,16.90
2009,07,31,07,20,17.00
2009,07,31,07,21,17.00
2009,07,31,07,22,17.10
2009,07,31,07,23,17.20
2009,07,31,07,24,17.20
2009,07,31,07,25,17.30
2009,07,31,07,26,17.30
2009,07,31,07,27,17.40
2009,07,31,07,28,17.40
2009,07,31,07,29,17.50
2009,07,31,07,30,17.60
2009,07,31,07,31,17.60
2009,07,31,07,32,17.70
2009,07,31,07,33,17.70
2009,07,31,07,34,17.70
2009,07,31,07,35,17.80
2009,07,31,07,36,17.90
2009,07,31,07,37,17.90
2009,07,31,07,38,18.00
2009,07,31,07,39,18.10
2009,07,31,07,40,18.10
2009,07,31,07,41,18.10
2009,07,31,07,42,18.20
2009,07,31,07,43,18.30
2009,07,31,07,44,18.30
2009,07,31,07,45,18.40
2009,07,31,07,46,18.40
2009,07,31,07,47,18.50
2009,07,31,07,48,18.50
2009,07,31,07,49,18.60
2009,07,31,07,50,18.60
2009,07,31,07,51,18.70
2009,07,31,07,52,18.70
2009,07,31,07,53,18.80
2009,07,31,07,54,18.80
2009,07,31,07,55,18.90
2009,07,31,07,56,18.90
2009,07,31,07,57,18.90
2009,07,31,07,58,18.90
2009,07,31,07,59,19.00
2009,07,31,08,00,19.00
2009,07,31,08,01,19.00
2009,07,31,08,02,19.10
2009,07,31,08,03,19.10
2009,07,31,08,04,19.10
2009,07,31,08,05,19.10
2009,07,31,08,06,19.10
2009,07,31,08,07,19.10
2009,07,31,08,08,19.10
2009,07,31,08,09,19.10
2009,07,31,08,10,19.20
2009,07,31,08,11,19.20
2009,07,31,08,12,19.20
2009,07,31,08,13,19.20
2009,07,31,08,14,19.20
2009,07,31,08,15,19.20
2009,07,31,08,16,19.20
2009,07,31,08,17,19.20
2009,07,31,08,18,19.20
2009,07,31,08,19,19.20
2009,07,31,08,20,19.20
2009,07,31,08,21,19.20
2009,07,31,08,22,19.20
2009,07,31,08,23,19.20
2009,07,31,08,24,19.20
2009,07,31,08,25,19.20
2009,07,31,08,26,19.20
2009,07,31,08,27,19.10
2009,07,31,08,28,19.10
2009,07,31,08,29,19.10
2009,07,31,08,30,19.10
2009,07,31,08,31,19.10
2009,07,31,08,32,19.10
2009,07,31,08,33,19.10
2009,07,31,08,34,19.10
2009,07,31,08,35,19.20
2009,07,31,08,36,19.20
2009,07,31,08,37,19.20
2009,07,31,08,38,19.30
2009,07,31,08,39,19.30
2009,07,31,08,40,19.40
2009,07,31,08,41,19.50
2009,07,31,08,42,19.50
2009,07,31,08,43,19.60
2009,07,31,08,44,19.60
2009,07,31,08,45,19.70
2009,07,31,08,46,19.70
2009,07,31,08,47,19.80
2009,07,31,08,48,19.80
2009,07,31,08,49,19.80
2009,07,31,08,50,19.90
2009,07,31,08,51,19.90
2009,07,31,08,52,19.80
2009,07,31,08,53,19.80
2009,07,31,08,54,19.90
2009,07,31,08,55,19.90
2009,07,31,08,56,19.90
2009,07,31,08,57,19.90
2009,07,31,08,58,19.90
2009,07,31,08,59,20.00
2009,07,31,09,00,20.00
2009,07,31,09,01,20.10
2009,07,31,09,02,20.10
2009,07,31,09,03,20.10
2009,07,31,09,04,20.20
2009,07,31,09,05,20.20
2009,07,31,09,06,20.30
2009,07,31,09,07,20.40
2009,07,31,09,08,20.40
2009,07,31,09,09,20.50
2009,07,31,09,10,20.50
2009,07,31,09,11,20.60
2009,07,31,09,12,20.60
2009,07,31,09,13,20.60
2009,07,31,09,14,20.50
2009,07,31,09,15,20.40
2009,07,31,09,16,20.40
2009,07,31,09,17,20.40
2009,07,31,09,18,20.30
2009,07,31,09,19,20.30
2009,07,31,09,20,20.30
2009,07,31,09,21,20.30
2009,07,31,09,22,20.30
2009,07,31,09,23,20.40
2009,07,31,09,24,20.40
2009,07,31,09,25,20.40
2009,07,31,09,26,20.40
2009,07,31,09,27,20.40
2009,07,31,09,28,20.40
2009,07,31,09,29,20.40
2009,07,31,09,30,20.30
2009,07,31,09,31,20.30
2009,07,31,09,32,20.30
2009,07,31,09,33,20.30
2009,07,31,09,34,20.20
2009,07,31,09,35,20.20
2009,07,31,09,36,20.20
2009,07,31,09,37,20.20
2009,07,31,09,38,20.20
2009,07,31,09,39,20.20
2009,07,31,09,40,20.30
2009,07,31,09,41,20.30
2009,07,31,09,42,20.40
2009,07,31,09,43,20.40
2009,07,31,09,44,20.50
2009,07,31,09,45,20.50
2009,07,31,09,46,20.50
2009,07,31,09,47,20.50
2009,07,31,09,48,20.50
2009,07,31,09,49,20.50
2009,07,31,09,50,20.50
2009,07,31,09,51,20.40
2009,07,31,09,52,20.40
2009,07,31,09,53,20.40
2009,07,31,09,54,20.40
2009,07,31,09,55,20.50
2009,07,31,09,56,20.40
2009,07,31,09,57,20.40
2009,07,31,09,58,20.40
2009,07,31,09,59,20.40
2009,07,31,10,00,20.40
2009,07,31,10,01,20.40
2009,07,31,10,02,20.40
2009,07,31,10,03,20.40
2009,07,31,10,04,20.40
2009,07,31,10,05,20.40
2009,07,31,10,06,20.40
2009,07,31,10,07,20.40
2009,07,31,10,08,20.40
2009,07,31,10,09,20.40
2009,07,31,10,10,20.40
2009,07,31,10,11,20.30
2009,07,31,10,12,20.30
2009,07,31,10,13,20.20
2009,07,31,10,14,20.20
2009,07,31,10,15,20.20
2009,07,31,10,16,20.30
2009,07,31,10,17,20.30
2009,07,31,10,18,20.30
2009,07,31,10,19,20.30
2009,07,31,10,20,20.40
2009,07,31,10,21,20.40
2009,07,31,10,22,20.40
2009,07,31,10,23,20.50
2009,07,31,10,24,20.50
2009,07,31,10,25,20.60
2009,07,31,10,26,20.60
2009,07,31,10,27,20.60
2009,07,31,10,28,20.70
2009,07,31,10,29,20.70
2009,07,31,10,30,20.70
2009,07,31,10,31,20.80
2009,07,31,10,32,20.80
2009,07,31,10,33,20.80
2009,07,31,10,34,20.80
2009,07,31,10,35,20.80
2009,07,31,10,36,20.80
2009,07,31,10,37,20.80
2009,07,31,10,38,20.80
2009,07,31,10,39,20.80
2009,07,31,10,40,20.80
2009,07,31,10,41,20.80
2009,07,31,10,42,20.80
2009,07,31,10,43,20.80
2009,07,31,10,44,20.90
2009,07,31,10,45,20.90
2009,07,31,10,46,21.00
2009,07,31,10,47,21.10
2009,07,31,10,48,21.20
2009,07,31,10,49,21.20
2009,07,31,10,50,21.20
2009,07,31,10,51,21.20
2009,07,31,10,52,21.20
2009,07,31,10,53,21.20
2009,07,31,10,54,21.20
2009,07,31,10,55,21.20
2009,07,31,10,56,21.30
2009,07,31,10,57,21.30
2009,07,31,10,58,21.40
2009,07,31,10,59,21.40
2009,07,31,11,00,21.50
2009,07,31,11,01,21.40
2009,07,31,11,02,21.40
2009,07,31,11,03,21.40
2009,07,31,11,04,21.40
2009,07,31,11,05,21.40
2009,07,31,11,06,21.40
2009,07,31,11,07,21.40
2009,07,31,11,08,21.40
2009,07,31,11,09,21.40
2009,07,31,11,10,21.40
2009,07,31,11,11,21.40
2009,07,31,11,12,21.40
2009,07,31,11,13,21.40
2009,07,31,11,14,21.30
2009,07,31,11,15,21.30
2009,07,31,11,16,21.30
2009,07,31,11,17,21.30
2009,07,31,11,18,21.30
2009,07,31,11,19,21.30
2009,07,31,11,20,21.40
2009,07,31,11,21,21.40
2009,07,31,11,22,21.40
2009,07,31,11,23,21.40
2009,07,31,11,24,21.50
2009,07,31,11,25,21.50
2009,07,31,11,26,21.50
2009,07,31,11,27,21.50
2009,07,31,11,28,21.50
2009,07,31,11,29,21.50
2009,07,31,11,30,21.50
2009,07,31,11,31,21.60
2009,07,31,11,32,21.60
2009,07,31,11,33,21.60
2009,07,31,11,34,21.60
2009,07,31,11,35,21.70
2009,07,31,11,36,21.80
2009,07,31,11,37,21.80
2009,07,31,11,38,21.90
2009,07,31,11,39,22.00
2009,07,31,11,40,22.10
2009,07,31,11,41,22.10
2009,07,31,11,42,22.20
2009,07,31,11,43,22.30
2009,07,31,11,44,22.40
2009,07,31,11,45,22.40
2009,07,31,11,46,22.50
2009,07,31,11,47,22.60
2009,07,31,11,48,22.60
2009,07,31,11,49,22.70
2009,07,31,11,50,22.70
2009,07,31,11,51,22.80
2009,07,31,11,52,22.80
2009,07,31,11,53,22.80
2009,07,31,11,54,22.80
2009,07,31,11,55,22.80
2009,07,31,11,56,22.80
2009,07,31,11,57,22.80
2009,07,31,11,58,22.80
2009,07,31,11,59,22.80
2009,07,31,12,00,22.80
2009,07,31,12,01,22.80
2009,07,31,12,02,22.80
2009,07,31,12,03,22.70
2009,07,31,12,04,22.60
2009,07,31,12,05,22.50
2009,07,31,12,06,22.40
2009,07,31,12,07,22.20
2009,07,31,12,08,22.10
2009,07,31,12,09,22.10
2009,07,31,12,10,22.00
2009,07,31,12,11,22.00
2009,07,31,12,12,22.00
2009,07,31,12,13,22.00
2009,07,31,12,14,22.00
2009,07,31,12,15,22.00
2009,07,31,12,16,22.10
2009,07,31,12,17,22.10
2009,07,31,12,18,22.10
2009,07,31,12,19,22.20
2009,07,31,12,20,22.20
2009,07,31,12,21,22.30
2009,07,31,12,22,22.30
2009,07,31,12,23,22.40
2009,07,31,12,24,22.40
2009,07,31,12,25,22.40
2009,07,31,12,26,22.40
2009,07,31,12,27,22.50
2009,07,31,12,28,22.50
2009,07,31,12,29,22.60
2009,07,31,12,30,22.70
2009,07,31,12,31,22.70
2009,07,31,12,32,22.70
2009,07,31,12,33,22.70
2009,07,31,12,34,22.70
2009,07,31,12,35,22.70
2009,07,31,12,36,22.70
2009,07,31,12,37,22.70
2009,07,31,12,38,22.60
2009,07,31,12,39,22.60
2009,07,31,12,40,22.50
2009,07,31,12,41,22.40
2009,07,31,12,42,22.30
2009,07,31,12,43,22.30
2009,07,31,12,44,22.30
2009,07,31,12,45,22.30
2009,07,31,12,46,22.30
2009,07,31,12,47,22.20
2009,07,31,12,48,22.20
2009,07,31,12,49,22.20
2009,07,31,12,50,22.30
2009,07,31,12,51,22.30
2009,07,31,12,52,22.40
2009,07,31,12,53,22.50
2009,07,31,12,54,22.60
2009,07,31,12,55,22.70
2009,07,31,12,56,22.90
2009,07,31,12,57,23.00
2009,07,31,12,58,23.10
2009,07,31,12,59,23.20
2009,07,31,13,00,23.30
2009,07,31,13,01,23.40
2009,07,31,13,02,23.50
2009,07,31,13,03,23.50
2009,07,31,13,04,23.60
2009,07,31,13,05,23.60
2009,07,31,13,06,23.60
2009,07,31,13,07,23.70
2009,07,31,13,08,23.70
2009,07,31,13,09,23.70
2009,07,31,13,10,23.80
2009,07,31,13,11,23.90
2009,07,31,13,12,24.00
2009,07,31,13,13,24.10
2009,07,31,13,14,24.10
2009,07,31,13,15,24.10
2009,07,31,13,16,24.20
2009,07,31,13,17,24.20
2009,07,31,13,18,24.30
2009,07,31,13,19,24.30
2009,07,31,13,20,24.30
2009,07,31,13,21,24.30
2009,07,31,13,22,24.40
2009,07,31,13,23,24.50
2009,07,31,13,24,24.60
2009,07,31,13,25,24.70
2009,07,31,13,26,24.80
2009,07,31,13,27,24.90
2009,07,31,13,28,24.90
2009,07,31,13,29,25.00
2009,07,31,13,30,25.00
2009,07,31,13,31,25.10
2009,07,31,13,32,25.20
2009,07,31,13,33,25.30
2009,07,31,13,34,25.30
2009,07,31,13,35,25.30
2009,07,31,13,36,25.40
2009,07,31,13,37,25.60
2009,07,31,13,38,25.70
2009,07,31,13,39,25.80
2009,07,31,13,40,25.90
2009,07,31,13,41,25.90
2009,07,31,13,42,25.70
2009,07,31,13,43,25.40
2009,07,31,13,44,25.10
2009,07,31,13,45,25.00
2009,07,31,13,46,24.90
2009,07,31,13,47,25.00
2009,07,31,13,48,25.00
2009,07,31,13,49,25.20
2009,07,31,13,50,25.20
2009,07,31,13,51,25.10
2009,07,31,13,52,25.20
2009,07,31,13,53,25.20
2009,07,31,13,54,25.30
2009,07,31,13,55,25.40
2009,07,31,13,56,25.50
2009,07,31,13,57,25.60
2009,07,31,13,58,25.70
2009,07,31,13,59,25.70
2009,07,31,14,00,25.80
2009,07,31,14,01,25.70
2009,07,31,14,02,25.80
2009,07,31,14,03,25.80
2009,07,31,14,04,25.90
2009,07,31,14,05,26.00
2009,07,31,14,06,26.10
2009,07,31,14,07,26.30
2009,07,31,14,08,26.40
2009,07,31,14,09,26.60
2009,07,31,14,10,26.70
2009,07,31,14,11,26.80
2009,07,31,14,12,26.90
2009,07,31,14,13,26.90
2009,07,31,14,14,26.80
2009,07,31,14,15,26.80
2009,07,31,14,16,26.80
2009,07,31,14,17,26.90
2009,07,31,14,18,27.00
2009,07,31,14,19,27.10
2009,07,31,14,20,27.30
2009,07,31,14,21,27.40
2009,07,31,14,22,27.60
2009,07,31,14,23,27.70
2009,07,31,14,24,27.80
2009,07,31,14,25,27.80
2009,07,31,14,26,27.80
2009,07,31,14,27,27.90
2009,07,31,14,28,27.90
2009,07,31,14,29,27.90
2009,07,31,14,30,27.80
2009,07,31,14,31,27.60
2009,07,31,14,32,27.50
2009,07,31,14,33,27.30
2009,07,31,14,34,27.10
2009,07,31,14,35,27.10
2009,07,31,14,36,27.00
2009,07,31,14,37,27.00
2009,07,31,14,38,27.10
2009,07,31,14,39,27.10
2009,07,31,14,40,27.20
2009,07,31,14,41,27.30
2009,07,31,14,42,27.30
2009,07,31,14,43,27.30
2009,07,31,14,44,27.30
2009,07,31,14,45,27.30
2009,07,31,14,46,27.30
2009,07,31,14,47,27.30
2009,07,31,14,48,27.30
2009,07,31,14,49,27.40
2009,07,31,14,50,27.50
2009,07,31,14,51,27.60
2009,07,31,14,52,27.70
2009,07,31,14,53,27.80
2009,07,31,14,54,27.80
2009,07,31,14,55,27.90
2009,07,31,14,56,27.90
2009,07,31,14,57,28.00
2009,07,31,14,58,28.00
2009,07,31,14,59,28.10
2009,07,31,15,00,28.00
2009,07,31,15,01,28.00
2009,07,31,15,02,28.10
2009,07,31,15,03,28.20
2009,07,31,15,04,28.30
2009,07,31,15,05,28.40
2009,07,31,15,06,28.50
2009,07,31,15,07,28.60
2009,07,31,15,08,28.60
2009,07,31,15,09,28.50
2009,07,31,15,10,28.30
2009,07,31,15,11,28.20
2009,07,31,15,12,28.10
2009,07,31,15,13,27.90
2009,07,31,15,14,27.70
2009,07,31,15,15,27.60
2009,07,31,15,16,27.50
2009,07,31,15,17,27.40
2009,07,31,15,18,27.40
2009,07,31,15,19,27.40
2009,07,31,15,20,27.40
2009,07,31,15,21,27.40
2009,07,31,15,22,27.40
2009,07,31,15,23,27.50
2009,07,31,15,24,27.40
2009,07,31,15,25,27.50
2009,07,31,15,26,27.50
2009,07,31,15,27,27.60
2009,07,31,15,28,27.70
2009,07,31,15,29,27.80
2009,07,31,15,30,28.00
2009,07,31,15,31,28.10
2009,07,31,15,32,28.20
2009,07,31,15,33,28.10
2009,07,31,15,34,28.10
2009,07,31,15,35,28.10
2009,07,31,15,36,28.10
2009,07,31,15,37,28.20
2009,07,31,15,38,28.30
2009,07,31,15,39,28.40
2009,07,31,15,40,28.50
2009,07,31,15,41,28.70
2009,07,31,15,42,28.80
2009,07,31,15,43,28.80
2009,07,31,15,44,28.80
2009,07,31,15,45,28.80
2009,07,31,15,46,28.90
2009,07,31,15,47,28.90
2009,07,31,15,48,28.90
2009,07,31,15,49,28.90
2009,07,31,15,50,28.90
2009,07,31,15,51,28.90
2009,07,31,15,52,28.80
2009,07,31,15,53,28.80
2009,07,31,15,54,28.80
2009,07,31,15,55,28.70
2009,07,31,15,56,28.70
2009,07,31,15,57,28.60
2009,07,31,15,58,28.70
2009,07,31,15,59,28.70
2009,07,31,16,00,28.70
2009,07,31,16,01,28.70
2009,07,31,16,02,28.70
2009,07,31,16,03,28.60
2009,07,31,16,04,28.60
2009,07,31,16,05,28.60
2009,07,31,16,06,28.60
2009,07,31,16,07,28.60
2009,07,31,16,08,28.60
2009,07,31,16,09,28.60
2009,07,31,16,10,28.70
2009,07,31,16,11,28.70
2009,07,31,16,12,28.70
2009,07,31,16,13,28.80
2009,07,31,16,14,28.80
2009,07,31,16,15,28.80
2009,07,31,16,16,28.80
2009,07,31,16,17,28.80
2009,07,31,16,18,28.80
2009,07,31,16,19,28.80
2009,07,31,16,20,28.90
2009,07,31,16,21,28.90
2009,07,31,16,22,28.90
2009,07,31,16,23,28.90
2009,07,31,16,24,28.90
2009,07,31,16,25,28.90
2009,07,31,16,26,28.80
2009,07,31,16,27,28.70
2009,07,31,16,28,28.60
2009,07,31,16,29,28.50
2009,07,31,16,30,28.40
2009,07,31,16,31,28.30
2009,07,31,16,32,28.30
2009,07,31,16,33,28.30
2009,07,31,16,34,28.30
2009,07,31,16,35,28.30
2009,07,31,16,36,28.30
2009,07,31,16,37,28.40
2009,07,31,16,38,28.50
2009,07,31,16,39,28.60
2009,07,31,16,40,28.70
2009,07,31,16,41,28.70
2009,07,31,16,42,28.70
2009,07,31,16,43,28.70
2009,07,31,16,44,28.70
2009,07,31,16,45,28.70
2009,07,31,16,46,28.60
2009,07,31,16,47,28.50
2009,07,31,16,48,28.40
2009,07,31,16,49,28.30
2009,07,31,16,50,28.20
2009,07,31,16,51,28.10
2009,07,31,16,52,28.10
2009,07,31,16,53,28.10
2009,07,31,16,54,28.00
2009,07,31,16,55,28.00
2009,07,31,16,56,28.00
2009,07,31,16,57,28.00
2009,07,31,16,58,27.90
2009,07,31,16,59,27.80
2009,07,31,17,00,27.80
2009,07,31,17,01,27.80
2009,07,31,17,02,27.70
2009,07,31,17,03,27.70
2009,07,31,17,04,27.70
2009,07,31,17,05,27.70
2009,07,31,17,06,27.80
2009,07,31,17,07,27.80
2009,07,31,17,08,27.70
2009,07,31,17,09,27.70
2009,07,31,17,10,27.60
2009,07,31,17,11,27.60
2009,07,31,17,12,27.60
2009,07,31,17,13,27.60
2009,07,31,17,14,27.70
2009,07,31,17,15,27.80
2009,07,31,17,16,27.90
2009,07,31,17,17,28.00
2009,07,31,17,18,28.10
2009,07,31,17,19,28.20